Simultaneous Nadir Overpasses (SNOs) Predictions

Prediction of SNOs between AQUA and GOES-15 Satellite Orbit:

Table of predicted SNOs for the next 14.0 days since TLE Epoch: 3/28/2025
Index Date Time (AQUA) AQUA Lat,Lon GOES-15 Lat,Lon Distance(km) Time Diff (sec)
1 03/29/2025 22:24:07 -0.23, 62.70 0.10, 61.25 165.02 80
2 03/30/2025 10:43:32 -0.82, 58.01 -0.09, 61.30 375.32 80
3 04/01/2025 10:23:43 0.26, 62.86 -0.09, 61.31 175.88 80
4 04/01/2025 22:43:00 0.74, 58.20 0.09, 61.26 348.98 80
5 04/03/2025 22:23:09 -0.31, 63.05 0.09, 61.28 202.34 80
6 04/04/2025 10:42:33 -0.74, 58.37 -0.09, 61.34 337.69 80
7 04/06/2025 10:22:40 0.28, 63.24 -0.09, 61.36 214.04 80
8 04/06/2025 22:41:57 0.67, 58.58 0.09, 61.31 311.00 80
9 04/08/2025 22:22:02 -0.33, 63.46 0.10, 61.33 241.77 80
10 04/09/2025 10:41:25 -0.66, 58.77 -0.09, 61.38 297.46 80
11 04/11/2025 10:21:29 0.37, 63.65 -0.09, 61.40 255.70 80
